Corpus Christi, TX

10:33 PM CST on February 26, 2017 (GMT -0600)
Corpus Christi Naval Air Station-Truax

Weather History for KNGP - July, 2013

Change the Weather History Date:

Monday, July 8, 2013

  Actual Average Record
Temperature  
Mean Temperature 84 °F -  
Max Temperature 91 °F 88 °F 93 °F (1996)
Min Temperature 79 °F 76 °F 73 °F (2003)
Cooling Degree Days 20    
Growing Degree Days 34 (Base 50)    
Moisture  
Dew Point 76 °F    
Average Humidity 79    
Maximum Humidity 90    
Minimum Humidity 63    
Precipitation  
Precipitation 0.00 in - - ()
Sea Level Pressure  
Sea Level Pressure 30.03 in    
Wind  
Wind Speed 14 mph (SE)    
Max Wind Speed 20 mph    
Max Gust Speed 25 mph    
Visibility 10 miles    
Events      
Averages and records for this station are not official NWS values.
T = Trace of Precipitation, MM = Missing Value Source: NWS Daily Summary

Daily Weather History Graph

Daily Weather History Graph

Search for Another Location

Airport or City:

Trip Planner

Search our weather history database for the weather conditions in past years. The results will help you decide how hot, cold, wet, or windy it might be!

Date:

Astronomy

Jul. 08, 2013 Rise Set
Actual Time 6:40 AM CDT 8:28 PM CDT
Civil Twilight 6:13 AM CDT 8:54 PM CDT
Nautical Twilight 5:41 AM CDT 9:26 PM CDT
Astronomical Twilight 5:08 AM CDT 9:59 PM CDT
Moon 7:02 AM CDT (7/8) 8:41 PM CDT (7/8)
Length of Visible Light 14h 40m
Length of Day
13h 48m
New Moon, 0% of the Moon is Illuminated
Jul 8
New Moon
Jul 15
First Quarter
Jul 22
Full
Jul 29
Last Quarter
Aug 6
New

Hourly Weather History & Observations

Time (CDT) Temp. Heat Index Dew Point Humidity Pressure Visibility Wind Dir Wind Speed Gust Speed Precip Events Conditions
12:09 AM 80.6 °F 86.2 °F 75.2 °F 84% 29.98 in 10.0 mi SSE 19.6 mph 25.3 mph N/A   Scattered Clouds
12:56 AM 81.0 °F 87.3 °F 75.9 °F 85% 29.98 in 10.0 mi SSE 15.0 mph 20.7 mph N/A   Partly Cloudy
1:38 AM 80.6 °F 86.2 °F 75.2 °F 84% 29.98 in 10.0 mi SSE 15.0 mph - N/A   Mostly Cloudy
1:46 AM 80.6 °F 86.2 °F 75.2 °F 84% 29.97 in 10.0 mi SSE 15.0 mph - N/A   Mostly Cloudy
1:56 AM 81.0 °F 87.3 °F 75.9 °F 85% 29.98 in 10.0 mi SSE 12.7 mph - N/A   Mostly Cloudy
2:16 AM 80.6 °F 87.1 °F 77.0 °F 89% 29.97 in 10.0 mi SSE 15.0 mph - N/A   Mostly Cloudy
2:37 AM 80.6 °F 86.2 °F 75.2 °F 84% 29.97 in 10.0 mi SSE 13.8 mph - N/A   Mostly Cloudy
2:56 AM 82.0 °F 89.4 °F 75.9 °F 82% 29.97 in 10.0 mi SSE 13.8 mph - N/A   Mostly Cloudy
3:56 AM 82.0 °F 90.2 °F 77.0 °F 85% 29.98 in 10.0 mi SSE 13.8 mph - N/A   Mostly Cloudy
4:56 AM 80.1 °F 84.5 °F 73.9 °F 81% 29.99 in 10.0 mi SSW 9.2 mph - N/A   Clear
5:56 AM 79.0 °F - 73.9 °F 84% 29.99 in 10.0 mi South 4.6 mph - N/A   Overcast
6:56 AM 80.1 °F 85.8 °F 77.0 °F 90% 30.00 in 10.0 mi SSE 4.6 mph - N/A   Overcast
7:56 AM 82.0 °F 90.2 °F 77.0 °F 85% 30.02 in 10.0 mi SSE 5.8 mph - N/A   Overcast
8:56 AM 82.9 °F 90.8 °F 75.9 °F 79% 30.05 in 10.0 mi SSE 13.8 mph 19.6 mph N/A   Overcast
9:56 AM 84.9 °F 94.1 °F 75.9 °F 74% 30.06 in 10.0 mi SE 13.8 mph - N/A   Overcast
10:56 AM 86.0 °F 95.1 °F 75.0 °F 70% 30.08 in 10.0 mi SSE 13.8 mph - N/A   Overcast
11:56 AM 88.0 °F 98.5 °F 75.9 °F 67% 30.09 in 10.0 mi SE 13.8 mph - N/A   Overcast
12:56 PM 89.1 °F 101.4 °F 77.0 °F 67% 30.08 in 10.0 mi SE 16.1 mph - N/A   Mostly Cloudy
1:56 PM 90.0 °F 102.5 °F 77.0 °F 65% 30.07 in 10.0 mi ESE 18.4 mph - N/A   Mostly Cloudy
2:56 PM 90.0 °F 101.3 °F 75.9 °F 63% 30.05 in 10.0 mi SE 17.3 mph - N/A   Mostly Cloudy
3:56 PM 90.0 °F 102.5 °F 77.0 °F 65% 30.04 in 10.0 mi SE 17.3 mph - N/A   Mostly Cloudy
4:56 PM 88.0 °F 100.2 °F 77.0 °F 70% 30.02 in 10.0 mi ESE 17.3 mph - N/A   Mostly Cloudy
5:56 PM 88.0 °F 98.5 °F 75.9 °F 67% 30.02 in 10.0 mi SE 17.3 mph - N/A   Mostly Cloudy
6:56 PM 86.0 °F 96.9 °F 77.0 °F 74% 30.03 in 10.0 mi SE 16.1 mph - N/A   Mostly Cloudy
7:56 PM 84.0 °F 93.7 °F 77.0 °F 79% 30.04 in 10.0 mi SSE 13.8 mph - N/A   Mostly Cloudy
8:56 PM 82.9 °F 92.8 °F 78.1 °F 85% 30.06 in 10.0 mi SE 12.7 mph 20.7 mph N/A   Mostly Cloudy
9:56 PM 82.0 °F 91.0 °F 78.1 °F 88% 30.07 in 10.0 mi SE 12.7 mph - N/A   Mostly Cloudy
10:56 PM 82.0 °F 91.0 °F 78.1 °F 88% 30.10 in 10.0 mi SE 13.8 mph - N/A   Mostly Cloudy
11:56 PM 82.0 °F 90.2 °F 77.0 °F 85% 30.09 in 10.0 mi SE 10.4 mph - N/A   Mostly Cloudy